Regional Weather Roundup
Issued by NWS State College, PA

Home | Current Version | Previous Version | Text Only | Print | Product List | Glossary On
Versions: 1 2 3 4 5 6 7 8 9 10 11 12 13 14 15 16 17 18 19 20 21 22 23 24 25 26 27 28 29 30 31 32 33 34 35 36 37 38 39 40 41 42 43 44 45 46 47 48 49 50
000
ASUS41 KCTP 011103
RWRCTP

REGIONAL WEATHER ROUNDUP
NATIONAL WEATHER SERVICE STATE COLLEGE PA
700 AM EDT SAT AUG 01 2015

Note: "fair" indicates few or no clouds below 12,000 feet with no
significant weather and/or obstructions to visibility.

* = STATION THAT DOES NOT REPORT PRECIPITATION /E.G. RAIN...SNOW...ETC/
    THUNDER OR FOG.

PAZ002>004-007>009-013>016-020>023-029>032-011200-
WESTERN PENNSYLVANIA

CITY           SKY/WX    TMP DP  RH WIND       PRES   REMARKS
ERIE           PTCLDY    66  59  78 CALM      29.88R
MEADVILLE      CLEAR     63  57  81 SW3       29.91R
FRANKLIN*      CLEAR     61  54  77 W7        29.92S
NEW CASTLE     FAIR      62  59  90 CALM      29.92R
BEAVER COUNTY  NOT AVBL
BUTLER*        CLEAR     63  57  82 W3        29.93R
PITTSBURGH INT PTCLDY    65  58  78 W6        29.91R
PITTSBURGH     PTCLDY    67  55  65 W6        29.91R
INDIANA*       PTCLDY    64  63  94 CALM      29.94R
LATROBE        NOT AVBL
WASHINGTON CO* NOT AVBL
$$

PAZ004>006-010>012-017>019-024>028-033>037-041-042-045-046-049>053-011200-
CENTRAL PENNSYLVANIA

CITY           SKY/WX    TMP DP  RH WIND       PRES   REMARKS
BRADFORD       CLEAR     59  57  93 W5        29.90S
DUBOIS         CLEAR     62  57  83 W6        29.90R
CLEARFIELD     CLEAR     62  58  86 SW5       29.90R
JOHNSTOWN      CLOUDY    65  57  75 W7        29.94S
ALTOONA        PTCLDY    65  60  84 S3        29.92R
STATE COLLEGE  PTCLDY    64  59  82 SW7       29.88R
WILLIAMSPORT   CLEAR     65  61  87 CALM      29.83R
SELINSGROVE    CLOUDY    68  62  81 VRB3      29.85R
FT INDIANTOWN  CLOUDY    64  62  96 CALM      29.85R
CAPITAL CITY   MOCLDY    70  60  70 W7        29.85R
HARRISBURG     MOCLDY    71  63  75 CALM      29.85R
YORK           PTCLDY    72  60  66 CALM      29.86R
$$

PAZ038>040-043-044-047-048-054-055-060>062-067>071-011200-
EASTERN PENNSYLVANIA

CITY           SKY/WX    TMP DP  RH WIND       PRES   REMARKS
SCRANTON       MOSUNNY   71  60  68 SW6       29.82F
MOUNT POCONO   PTSUNNY   64  58  80 W7        29.87S
ALLENTOWN      PTSUNNY   66  62  87 SW6       29.83R
QUAKERTOWN*    MOSUNNY   64  63  94 CALM      29.85R
READING        CLEAR     68  62  81 CALM      29.83R
LANCASTER      CLEAR     66  63  90 CALM      29.85R
COATESVILLE    SUNNY     70  63  78 W3        29.87R
POTTSTOWN      CLOUDY    68  63  84 CALM      29.86R
BLUE BELL      SUNNY     66  64  94 CALM      29.83
DOYLESTOWN     SUNNY     67  61  81 VRB3      29.83R
WILLOW GROVE   NOT AVBL
NORTH PHILA    MOSUNNY   75  60  59 W7        29.84R
PHILADELPHIA   MOSUNNY   76  64  66 SW8       29.84R
$$


USA.gov is the U.S. government's official web portal to all federal, state and local government web resources and services.